DK6MAX-13 Weather Reports


time (UTC)temp
C
wind
direction
speed
KPH
gust
KPH
rain 1hr
cm
rain 24hr
cm
rain mn
cm
humidity
%
barometer
mb
20260506102410 13 0.0 0.0 0.00 0.00 0.00 83 1007.2
20260506102310 13 0.0 0.0 0.00 0.00 0.00 82 1007.2
20260506102210 12 0.0 0.0 0.00 0.00 0.00 82 1007.2
20260506102110 13 0.0 0.0 0.00 0.00 0.00 86 1007.2
20260506102010 12 0.0 0.0 0.00 0.00 0.00 86 1007.2
20260506101910 12 0.0 0.0 0.00 0.00 0.00 85 1007.2
20260506101810 12 0.0 0.0 0.00 0.00 0.00 85 1007.3
20260506101710 12 0.0 0.0 0.00 0.00 0.00 86 1007.2
20260506101610 12 0.0 0.0 0.00 0.00 0.00 85 1007.2
20260506101510 12 0.0 0.0 0.00 0.00 0.00 86 1007.2
20260506101410 12 0.0 0.0 0.00 0.00 0.00 87 1007.2
20260506101310 12 0.0 0.0 0.00 0.00 0.00 85 1007.2
20260506101211 12 0.0 0.0 0.00 0.00 0.00 86 1007.2
20260506101110 12 0.0 0.0 0.00 0.00 0.00 85 1007.2
20260506101010 12 0.0 0.0 0.00 0.00 0.00 86 1007.2
20260506100910 13 0.0 0.0 0.00 0.00 0.00 88 1007.2
20260506100810 12 0.0 0.0 0.00 0.00 0.00 89 1007.2
20260506100710 12 0.0 0.0 0.00 0.00 0.00 87 1007.2
20260506100610 12 0.0 0.0 0.00 0.00 0.00 90 1007.2
20260506100411 12 0.0 0.0 0.00 0.00 0.00 89 1007.2
20260506100310 12 0.0 0.0 0.00 0.00 0.00 87 1007.2
20260506100210 12 0.0 0.0 0.00 0.00 0.00 89 1007.2
20260506100110 12 0.0 0.0 0.00 0.00 0.00 90 1007.2
20260506100010 12 0.0 0.0 0.00 0.00 0.00 90 1007.2
20260506095910 11 0.0 0.0 0.00 0.00 0.00 89 1007.1
20260506095810 12 0.0 0.0 0.00 0.00 0.00 89 1007.1
20260506095710 12 0.0 0.0 0.00 0.00 0.00 87 1007.3
20260506095610 12 0.0 0.0 0.00 0.00 0.00 90 1007.3
20260506095510 12 0.0 0.0 0.00 0.00 0.00 89 1007.3
20260506095410 12 0.0 0.0 0.00 0.00 0.00 89 1007.3
20260506095310 12 0.0 0.0 0.00 0.00 0.00 86 1007.2
20260506095210 12 0.0 0.0 0.00 0.00 0.00 86 1007.2
20260506095110 12 0.0 0.0 0.00 0.00 0.00 86 1007.2
20260506095010 12 0.0 0.0 0.00 0.00 0.00 88 1007.2
20260506094910 12 0.0 0.0 0.00 0.00 0.00 88 1007.2
20260506094810 12 0.0 0.0 0.00 0.00 0.00 88 1007.2
20260506094710 12 0.0 0.0 0.00 0.00 0.00 86 1007.2
20260506094610 12 0.0 0.0 0.00 0.00 0.00 88 1007.2
20260506094510 12 0.0 0.0 0.00 0.00 0.00 88 1007.2
20260506094410 12 0.0 0.0 0.00 0.00 0.00 88 1007.1
20260506094310 12 0.0 0.0 0.00 0.00 0.00 88 1007.1
20260506094210 12 0.0 0.0 0.00 0.00 0.00 89 1007.1
20260506094110 12 0.0 0.0 0.00 0.00 0.00 89 1007.2
20260506094010 12 0.0 0.0 0.00 0.00 0.00 89 1007.2
20260506093910 12 0.0 0.0 0.00 0.00 0.00 87 1007.2
20260506093810 12 0.0 0.0 0.00 0.00 0.00 88 1007.2
20260506093711 13 0.0 0.0 0.00 0.00 0.00 88 1007.2
20260506093610 12 0.0 0.0 0.00 0.00 0.00 86 1007.2
20260506093510 12 0.0 0.0 0.00 0.00 0.00 85 1007.2
20260506093410 12 0.0 0.0 0.00 0.00 0.00 85 1007.2
20260506093310 12 0.0 0.0 0.00 0.00 0.00 88 1007.2
20260506093210 12 0.0 0.0 0.00 0.00 0.00 86 1007.1
20260506093110 12 0.0 0.0 0.00 0.00 0.00 84 1007.1
20260506093010 12 0.0 0.0 0.00 0.00 0.00 85 1007.1
20260506092910 12 0.0 0.0 0.00 0.00 0.00 85 1007.1
20260506092810 12 0.0 0.0 0.00 0.00 0.00 88 1007.1
20260506092710 12 0.0 0.0 0.00 0.00 0.00 85 1007.1
20260506092610 12 0.0 0.0 0.00 0.00 0.00 85 1007.1
20260506092510 13 0.0 0.0 0.00 0.00 0.00 83 1007.1
20260506092410 12 0.0 0.0 0.00 0.00 0.00 86 1007.1
20260506092310 12 0.0 0.0 0.00 0.00 0.00 84 1007.1
20260506092210 12 0.0 0.0 0.00 0.00 0.00 85 1007.1
20260506092110 13 0.0 0.0 0.00 0.00 0.00 85 1007.1
20260506092010 13 0.0 0.0 0.00 0.00 0.00 82 1007.0
20260506091910 13 0.0 0.0 0.00 0.00 0.00 81 1007.0
20260506091810 13 0.0 0.0 0.00 0.00 0.00 85 1007.1
20260506091710 13 0.0 0.0 0.00 0.00 0.00 86 1007.1
20260506091610 13 0.0 0.0 0.00 0.00 0.00 88 1007.1
20260506091510 13 0.0 0.0 0.00 0.00 0.00 90 1007.1
20260506091410 13 0.0 0.0 0.00 0.00 0.00 84 1007.1
20260506091310 12 0.0 0.0 0.00 0.00 0.00 84 1007.1
20260506091210 12 0.0 0.0 0.00 0.00 0.00 89 1007.1
20260506091110 13 0.0 0.0 0.00 0.00 0.00 89 1007.1
20260506091010 13 0.0 0.0 0.00 0.00 0.00 88 1007.1
20260506090910 13 0.0 0.0 0.00 0.00 0.00 85 1007.0
20260506090810 12 0.0 0.0 0.00 0.00 0.00 87 1007.0
20260506090710 12 0.0 0.0 0.00 0.00 0.00 90 1007.0
20260506090610 13 0.0 0.0 0.00 0.00 0.00 90 1007.0
20260506090510 12 0.0 0.0 0.00 0.00 0.00 88 1007.1
20260506090410 12 0.0 0.0 0.00 0.00 0.00 88 1007.1
20260506090310 12 0.0 0.0 0.00 0.00 0.00 88 1007.1
20260506090210 13 0.0 0.0 0.00 0.00 0.00 89 1007.0
20260506090110 12 0.0 0.0 0.00 0.00 0.00 86 1007.1
20260506090009 12 0.0 0.0 0.00 0.00 0.00 86 1007.1
20260506085910 12 0.0 0.0 0.00 0.00 0.00 86 1007.1
20260506085810 12 0.0 0.0 0.00 0.00 0.00 91 1007.0
20260506085710 12 0.0 0.0 0.00 0.00 0.00 91 1007.0
20260506085610 12 0.0 0.0 0.00 0.00 0.00 89 1007.0
20260506085510 12 0.0 0.0 0.00 0.00 0.00 90 1007.0
20260506085410 12 0.0 0.0 0.00 0.00 0.00 90 1007.0
20260506085310 12 0.0 0.0 0.00 0.00 0.00 91 1007.0
20260506085210 12 0.0 0.0 0.00 0.00 0.00 92 1007.0
20260506085110 12 0.0 0.0 0.00 0.00 0.00 90 1007.0
20260506085010 12 0.0 0.0 0.00 0.00 0.00 89 1007.0
20260506084910 12 0.0 0.0 0.00 0.00 0.00 90 1007.0
20260506084810 12 0.0 0.0 0.00 0.00 0.00 90 1007.1
20260506084711 12 0.0 0.0 0.00 0.00 0.00 92 1007.1
20260506084610 12 0.0 0.0 0.00 0.00 0.00 89 1007.1
20260506084510 12 0.0 0.0 0.00 0.00 0.00 91 1007.0
20260506084410 12 0.0 0.0 0.00 0.00 0.00 89 1007.0
20260506084311 12 0.0 0.0 0.00 0.00 0.00 89 1007.0
20260506084210 12 0.0 0.0 0.00 0.00 0.00 91 1007.0
20260506084110 12 0.0 0.0 0.00 0.00 0.00 91 1006.9
20260506084010 12 0.0 0.0 0.00 0.00 0.00 89 1007.0
20260506083910 12 0.0 0.0 0.00 0.00 0.00 90 1007.0
20260506083810 12 0.0 0.0 0.00 0.00 0.00 91 1006.9
20260506083710 12 0.0 0.0 0.00 0.00 0.00 90 1006.9
20260506083610 12 0.0 0.0 0.00 0.00 0.00 90 1006.9
20260506083510 11 0.0 0.0 0.00 0.00 0.00 90 1007.0
20260506083410 11 0.0 0.0 0.00 0.00 0.00 91 1006.9
20260506083310 11 0.0 0.0 0.00 0.00 0.00 91 1006.9
20260506083210 11 0.0 0.0 0.00 0.00 0.00 91 1006.9
20260506083110 11 0.0 0.0 0.00 0.00 0.00 91 1007.0
20260506083010 11 0.0 0.0 0.00 0.00 0.00 93 1006.9
20260506082910 11 0.0 0.0 0.00 0.00 0.00 93 1006.9
20260506082810 11 0.0 0.0 0.00 0.00 0.00 93 1006.9
20260506082710 11 0.0 0.0 0.00 0.00 0.00 91 1006.9
20260506082610 11 0.0 0.0 0.00 0.00 0.00 92 1006.9
20260506082510 11 0.0 0.0 0.00 0.00 0.00 92 1006.9
20260506082410 11 0.0 0.0 0.00 0.00 0.00 93 1006.9
20260506082310 11 0.0 0.0 0.00 0.00 0.00 93 1006.9
20260506082210 11 0.0 0.0 0.00 0.00 0.00 93 1006.9
20260506082110 11 0.0 0.0 0.00 0.00 0.00 93 1006.9
20260506082011 11 0.0 0.0 0.00 0.00 0.00 93 1006.9
20260506081910 11 0.0 0.0 0.00 0.00 0.00 93 1006.9
20260506081810 11 0.0 0.0 0.00 0.00 0.00 93 1006.9
20260506081710 11 0.0 0.0 0.00 0.00 0.00 93 1006.8
20260506081609 11 0.0 0.0 0.00 0.00 0.00 93 1006.9
20260506081510 11 0.0 0.0 0.00 0.00 0.00 93 1006.9
20260506081409 11 0.0 0.0 0.00 0.00 0.00 93 1006.8
20260506081310 11 0.0 0.0 0.00 0.00 0.00 93 1006.8
20260506081210 11 0.0 0.0 0.00 0.00 0.00 93 1006.8
20260506081110 11 0.0 0.0 0.00 0.00 0.00 92 1006.8
20260506081010 11 0.0 0.0 0.00 0.00 0.00 91 1006.8
20260506080909 11 0.0 0.0 0.00 0.00 0.00 93 1006.8
20260506080810 11 0.0 0.0 0.00 0.00 0.00 93 1006.8
20260506080710 11 0.0 0.0 0.00 0.00 0.00 92 1006.8
20260506080610 11 0.0 0.0 0.00 0.00 0.00 92 1006.8
20260506080510 11 0.0 0.0 0.00 0.00 0.00 92 1006.8
20260506080410 11 0.0 0.0 0.00 0.00 0.00 92 1006.7
20260506080310 11 0.0 0.0 0.00 0.00 0.00 91 1006.8
20260506080210 11 0.0 0.0 0.00 0.00 0.00 91 1006.8
20260506080110 11 0.0 0.0 0.00 0.00 0.00 92 1006.7
20260506073510 11 0.0 0.0 0.00 0.00 0.00 91 1006.6
20260506073410 11 0.0 0.0 0.00 0.00 0.00 91 1006.6
20260506073310 11 0.0 0.0 0.00 0.00 0.00 91 1006.5
20260506073210 11 0.0 0.0 0.00 0.00 0.00 93 1006.6
20260506073110 11 0.0 0.0 0.00 0.00 0.00 93 1006.6
20260506073010 11 0.0 0.0 0.00 0.00 0.00 90 1006.5
20260506072910 11 0.0 0.0 0.00 0.00 0.00 90 1006.5
20260506072810 11 0.0 0.0 0.00 0.00 0.00 93 1006.5
20260506072710 12 0.0 0.0 0.00 0.00 0.00 93 1006.6
20260506072609 11 0.0 0.0 0.00 0.00 0.00 92 1006.6
20260506072510 11 0.0 0.0 0.00 0.00 0.00 92 1006.6
20260506072409 11 0.0 0.0 0.00 0.00 0.00 92 1006.6
20260506072310 11 0.0 0.0 0.00 0.00 0.00 92 1006.6
20260506072210 11 0.0 0.0 0.00 0.00 0.00 90 1006.6
20260506072109 11 0.0 0.0 0.00 0.00 0.00 92 1006.7
20260506072010 11 0.0 0.0 0.00 0.00 0.00 92 1006.7
20260506071910 11 0.0 0.0 0.00 0.00 0.00 90 1006.7
20260506071810 11 0.0 0.0 0.00 0.00 0.00 91 1006.7
20260506071710 11 0.0 0.0 0.00 0.00 0.00 91 1006.7
20260506071610 11 0.0 0.0 0.00 0.00 0.00 92 1006.7
20260506071510 11 0.0 0.0 0.00 0.00 0.00 91 1006.7
20260506071410 11 0.0 0.0 0.00 0.00 0.00 92 1006.7
20260506071310 11 0.0 0.0 0.00 0.00 0.00 93 1006.7
20260506071210 11 0.0 0.0 0.00 0.00 0.00 93 1006.7
20260506071110 11 0.0 0.0 0.00 0.00 0.00 93 1006.7
20260506071010 11 0.0 0.0 0.00 0.00 0.00 92 1006.7
20260506070910 11 0.0 0.0 0.00 0.00 0.00 92 1006.7
20260506070810 11 0.0 0.0 0.00 0.00 0.00 93 1006.6
20260506070709 10 0.0 0.0 0.00 0.00 0.00 93 1006.6
20260506070610 10 0.0 0.0 0.00 0.00 0.00 93 1006.6
20260506070510 11 0.0 0.0 0.00 0.00 0.00 93 1006.6
20260506070410 10 0.0 0.0 0.00 0.00 0.00 92 1006.6
20260506070310 11 0.0 0.0 0.00 0.00 0.00 92 1006.7
20260506070210 11 0.0 0.0 0.00 0.00 0.00 92 1006.6
20260506070110 11 0.0 0.0 0.00 0.00 0.00 93 1006.7
20260506062509 10 0.0 0.0 0.00 0.00 0.00 93 1006.6
20260506062409 10 0.0 0.0 0.00 0.00 0.00 93 1006.6
20260506062309 10 0.0 0.0 0.00 0.00 0.00 93 1006.6
20260506062209 10 0.0 0.0 0.00 0.00 0.00 93 1006.6
20260506062110 10 0.0 0.0 0.00 0.00 0.00 93 1006.6
20260506062010 10 0.0 0.0 0.00 0.00 0.00 93 1006.5
20260506061910 11 0.0 0.0 0.00 0.00 0.00 93 1006.5
20260506061810 11 0.0 0.0 0.00 0.00 0.00 93 1006.6
20260506061710 11 0.0 0.0 0.00 0.00 0.00 93 1006.5
20260506061610 11 0.0 0.0 0.00 0.00 0.00 93 1006.6
20260506061510 10 0.0 0.0 0.00 0.00 0.00 93 1006.5
20260506061409 11 0.0 0.0 0.00 0.00 0.00 93 1006.5
20260506061310 11 0.0 0.0 0.00 0.00 0.00 93 1006.5
20260506061210 11 0.0 0.0 0.00 0.00 0.00 92 1006.5
20260506061110 11 0.0 0.0 0.00 0.00 0.00 93 1006.5
20260506061010 11 0.0 0.0 0.00 0.00 0.00 92 1006.5
20260506060909 11 0.0 0.0 0.00 0.00 0.00 93 1006.5
20260506060809 11 0.0 0.0 0.00 0.00 0.00 93 1006.5
20260506060710 11 0.0 0.0 0.00 0.00 0.00 93 1006.5
20260506060609 11 0.0 0.0 0.00 0.00 0.00 92 1006.5
20260506060510 11 0.0 0.0 0.00 0.00 0.00 92 1006.5
20260506060409 11 0.0 0.0 0.00 0.00 0.00 92 1006.5
20260506060309 11 0.0 0.0 0.00 0.00 0.00 92 1006.5
20260506060210 11 0.0 0.0 0.00 0.00 0.00 92 1006.4
20260506060110 11 0.0 0.0 0.00 0.00 0.00 91 1006.4
20260506051410 10 0.0 0.0 0.00 0.00 0.00 94 1006.4
20260506051310 10 0.0 0.0 0.00 0.00 0.00 95 1006.5
20260506051210 10 0.0 0.0 0.00 0.00 0.00 95 1006.4
20260506051110 10 0.0 0.0 0.00 0.00 0.00 94 1006.5
20260506051010 10 0.0 0.0 0.00 0.00 0.00 94 1006.5
20260506050910 10 0.0 0.0 0.00 0.00 0.00 95 1006.5
20260506050810 10 0.0 0.0 0.00 0.00 0.00 94 1006.5
20260506050710 10 0.0 0.0 0.00 0.00 0.00 94 1006.5
20260506050610 10 0.0 0.0 0.00 0.00 0.00 95 1006.5
20260506050510 10 0.0 0.0 0.00 0.00 0.00 94 1006.5
20260506050409 10 0.0 0.0 0.00 0.00 0.00 94 1006.5
20260506050309 10 0.0 0.0 0.00 0.00 0.00 94 1006.5
20260506050210 10 0.0 0.0 0.00 0.00 0.00 94 1006.5
20260506050110 10 0.0 0.0 0.00 0.00 0.00 95 1006.5
20260506045109 10 0.0 0.0 0.00 0.00 0.00 94 1006.5
20260506045009 10 0.0 0.0 0.00 0.00 0.00 94 1006.5
20260506044909 10 0.0 0.0 0.00 0.00 0.00 94 1006.5
20260506044810 10 0.0 0.0 0.00 0.00 0.00 94 1006.5
20260506044710 10 0.0 0.0 0.00 0.00 0.00 95 1006.5
20260506044611 10 0.0 0.0 0.00 0.00 0.00 95 1006.5
20260506044510 10 0.0 0.0 0.00 0.00 0.00 94 1006.5
20260506044410 10 0.0 0.0 0.00 0.00 0.00 94 1006.6
20260506044310 10 0.0 0.0 0.00 0.00 0.00 94 1006.6
20260506044210 10 0.0 0.0 0.00 0.00 0.00 95 1006.5
20260506044110 10 0.0 0.0 0.00 0.00 0.00 94 1006.5
20260506044009 10 0.0 0.0 0.00 0.00 0.00 94 1006.5
20260506043910 10 0.0 0.0 0.00 0.00 0.00 94 1006.5
20260506043809 10 0.0 0.0 0.00 0.00 0.00 95 1006.5
20260506043709 10 0.0 0.0 0.00 0.00 0.00 95 1006.5
20260506043610 10 0.0 0.0 0.00 0.00 0.00 94 1006.5
20260506043510 10 0.0 0.0 0.00 0.00 0.00 94 1006.6
20260506043409 10 0.0 0.0 0.00 0.00 0.00 94 1006.5
20260506043309 10 0.0 0.0 0.00 0.00 0.00 94 1006.5
20260506043210 10 0.0 0.0 0.00 0.00 0.00 94 1006.5
20260506043109 10 0.0 0.0 0.00 0.00 0.00 94 1006.5
20260506043009 10 0.0 0.0 0.00 0.00 0.00 94 1006.5
20260506042910 10 0.0 0.0 0.00 0.00 0.00 94 1006.5
20260506042809 10 0.0 0.0 0.00 0.00 0.00 94 1006.5
20260506042710 10 0.0 0.0 0.00 0.00 0.00 94 1006.5
20260506042609 10 0.0 0.0 0.00 0.00 0.00 94 1006.5
20260506042509 10 0.0 0.0 0.00 0.00 0.00 94 1006.5
20260506042410 10 0.0 0.0 0.00 0.00 0.00 94 1006.5
20260506042309 10 0.0 0.0 0.00 0.00 0.00 94 1006.5
20260506042209 10 0.0 0.0 0.00 0.00 0.00 94 1006.5
20260506042109 10 0.0 0.0 0.00 0.00 0.00 94 1006.5
20260506042009 10 0.0 0.0 0.00 0.00 0.00 94 1006.5
20260506041909 10 0.0 0.0 0.00 0.00 0.00 94 1006.5
20260506041809 10 0.0 0.0 0.00 0.00 0.00 94 1006.5
20260506041709 10 0.0 0.0 0.00 0.00 0.00 94 1006.5
20260506041609 10 0.0 0.0 0.00 0.00 0.00 94 1006.5
20260506041509 10 0.0 0.0 0.00 0.00 0.00 94 1006.5
20260506041409 10 0.0 0.0 0.00 0.00 0.00 94 1006.5
20260506041309 10 0.0 0.0 0.00 0.00 0.00 94 1006.5
20260506041209 10 0.0 0.0 0.00 0.00 0.00 94 1006.5
20260506041109 10 0.0 0.0 0.00 0.00 0.00 94 1006.5
20260506041009 10 0.0 0.0 0.00 0.00 0.00 94 1006.5
20260506040909 10 0.0 0.0 0.00 0.00 0.00 94 1006.5
20260506040809 10 0.0 0.0 0.00 0.00 0.00 94 1006.5
20260506040709 10 0.0 0.0 0.00 0.00 0.00 94 1006.5
20260506040609 10 0.0 0.0 0.00 0.00 0.00 94 1006.5
20260506040510 10 0.0 0.0 0.00 0.00 0.00 94 1006.5
20260506040409 10 0.0 0.0 0.00 0.00 0.00 94 1006.5
20260506040209 10 0.0 0.0 0.00 0.00 0.00 94 1006.6
20260506040109 10 0.0 0.0 0.00 0.00 0.00 94 1006.6
20260506040009 10 0.0 0.0 0.00 0.00 0.00 94 1006.6
20260506035909 10 0.0 0.0 0.00 0.00 0.00 94 1006.6
20260506035809 10 0.0 0.0 0.00 0.00 0.00 94 1006.6
20260506035709 10 0.0 0.0 0.00 0.00 0.00 94 1006.6
20260506035610 10 0.0 0.0 0.00 0.00 0.00 94 1006.6
20260506035509 10 0.0 0.0 0.00 0.00 0.00 94 1006.6
20260506035410 10 0.0 0.0 0.00 0.00 0.00 94 1006.6
20260506035309 10 0.0 0.0 0.00 0.00 0.00 94 1006.6
20260506035210 10 0.0 0.0 0.00 0.00 0.00 94 1006.6
20260506035109 10 0.0 0.0 0.00 0.00 0.00 94 1006.6
20260506035009 10 0.0 0.0 0.00 0.00 0.00 94 1006.6
20260506034910 10 0.0 0.0 0.00 0.00 0.00 94 1006.5
20260506034809 10 0.0 0.0 0.00 0.00 0.00 94 1006.5
20260506034709 10 0.0 0.0 0.00 0.00 0.00 94 1006.6
20260506034610 10 0.0 0.0 0.00 0.00 0.00 94 1006.6
20260506034510 10 0.0 0.0 0.00 0.00 0.00 94 1006.5
20260506034409 10 0.0 0.0 0.00 0.00 0.00 94 1006.6
20260506034310 10 0.0 0.0 0.00 0.00 0.00 94 1006.6
20260506034210 10 0.0 0.0 0.00 0.00 0.00 94 1006.6
20260506034110 10 0.0 0.0 0.00 0.00 0.00 94 1006.6
20260506034009 10 0.0 0.0 0.00 0.00 0.00 94 1006.6
20260506033910 10 0.0 0.0 0.00 0.00 0.00 94 1006.6
20260506033809 10 0.0 0.0 0.00 0.00 0.00 94 1006.5
20260506033709 10 0.0 0.0 0.00 0.00 0.00 94 1006.5
20260506033610 10 0.0 0.0 0.00 0.00 0.00 94 1006.5
20260506033509 10 0.0 0.0 0.00 0.00 0.00 94 1006.6
20260506033410 10 0.0 0.0 0.00 0.00 0.00 94 1006.6
20260506033309 10 0.0 0.0 0.00 0.00 0.00 94 1006.5
20260506033209 10 0.0 0.0 0.00 0.00 0.00 94 1006.5
20260506033110 10 0.0 0.0 0.00 0.00 0.00 94 1006.5
20260506033010 10 0.0 0.0 0.00 0.00 0.00 94 1006.6
20260506032910 10 0.0 0.0 0.00 0.00 0.00 94 1006.5
20260506032809 10 0.0 0.0 0.00 0.00 0.00 94 1006.6
20260506032709 10 0.0 0.0 0.00 0.00 0.00 94 1006.6
20260506032609 10 0.0 0.0 0.00 0.00 0.00 94 1006.6
20260506032509 10 0.0 0.0 0.00 0.00 0.00 94 1006.6
20260506032410 10 0.0 0.0 0.00 0.00 0.00 94 1006.6
20260506032310 10 0.0 0.0 0.00 0.00 0.00 93 1006.5
20260506032210 10 0.0 0.0 0.00 0.00 0.00 94 1006.5
20260506032109 10 0.0 0.0 0.00 0.00 0.00 94 1006.6
20260506032009 10 0.0 0.0 0.00 0.00 0.00 94 1006.6
20260506031909 10 0.0 0.0 0.00 0.00 0.00 94 1006.6
20260506031809 10 0.0 0.0 0.00 0.00 0.00 94 1006.6
20260506031710 10 0.0 0.0 0.00 0.00 0.00 94 1006.6
20260506031610 10 0.0 0.0 0.00 0.00 0.00 94 1006.6
20260506031509 10 0.0 0.0 0.00 0.00 0.00 94 1006.6
20260506031409 10 0.0 0.0 0.00 0.00 0.00 94 1006.6
20260506031309 10 0.0 0.0 0.00 0.00 0.00 94 1006.6
20260506031209 10 0.0 0.0 0.00 0.00 0.00 94 1006.6
20260506031110 10 0.0 0.0 0.00 0.00 0.00 94 1006.6
20260506031010 10 0.0 0.0 0.00 0.00 0.00 95 1006.6
20260506030909 10 0.0 0.0 0.00 0.00 0.00 94 1006.6
20260506030809 10 0.0 0.0 0.00 0.00 0.00 94 1006.6
20260506030709 10 0.0 0.0 0.00 0.00 0.00 94 1006.6
20260506030609 10 0.0 0.0 0.00 0.00 0.00 94 1006.6
20260506030510 10 0.0 0.0 0.00 0.00 0.00 94 1006.6
20260506030409 10 0.0 0.0 0.00 0.00 0.00 95 1006.6
20260506030309 10 0.0 0.0 0.00 0.00 0.00 95 1006.6
20260506030210 10 0.0 0.0 0.00 0.00 0.00 94 1006.6
20260506030109 10 0.0 0.0 0.00 0.00 0.00 95 1006.6
20260506030009 10 0.0 0.0 0.00 0.00 0.00 95 1006.6
20260506025910 10 0.0 0.0 0.00 0.00 0.00 95 1006.6
20260506025809 10 0.0 0.0 0.00 0.00 0.00 95 1006.6
20260506025709 10 0.0 0.0 0.00 0.00 0.00 95 1006.6
20260506025609 10 0.0 0.0 0.00 0.00 0.00 95 1006.6
20260506025509 10 0.0 0.0 0.00 0.00 0.00 95 1006.6
20260506025409 10 0.0 0.0 0.00 0.00 0.00 95 1006.6
20260506025310 10 0.0 0.0 0.00 0.00 0.00 95 1006.6
20260506025209 10 0.0 0.0 0.00 0.00 0.00 94 1006.7
20260506025110 10 0.0 0.0 0.00 0.00 0.00 94 1006.6
20260506025009 10 0.0 0.0 0.00 0.00 0.00 94 1006.6